SCP
0 0 0 0 0 0 0 0 0 0 0 0 0 0 0 0 0 0 0 0 0 0 0 0 0 0 0 0 0 0 0 0 0 0 0 0 0 0 0 0 0 0 0 0 0 0 0 0 0 0 0 0 0 0
0 0 0 0 0 0 0 0 0 0 0 0 0 0 0 0 0 0 0 0 0 0 0 0 0 0 0 0 0 0 0 0 0 0 0 0 0 0 0 0 0 0 0 0 0 0 0 0 0 0 0 0 0 0
0 0 0 0 0 0 0 0 0 0 0 0 0 0 0 0 0 0 0 0 0 0 0 0 0 0 0 0 0 0 0 0 0 0 0 0 0 0 0 0 0 0 0 0 0 0 0 0 0 0 0 0 0 0
0 0 0 0 0 0 0 0 0 0 0 0 0 0 0 0 0 0 0 0 0 0 0 0 0 0 0 0 0 0 0 0 0 0 0 0 0 0 0 0 0 0 0 0 0 0 0 0 0 0 0 0 0 0
0 0 0 0 0 0 0 0 0 0 0 0 0 0 0 0 0 0 0 0 0 0 0 0 0 0 0 0 0 0 0 0 0 0 0 0 0 0 0 0 0 0 0 0 0 0 0 0 0 0 -0 0 0 0
0 0 0 0 0 0 0 0 0 0 0 0 0 0 0 0 0 0 0 0 0 0 0 0 0 0 0 0 0 0 0 0 0 0 0 0 0 0 0 0 0 0 0 0 0 0 0 0 -0 -0 0 0 0 0
0 0 0 0 0 0 0 0 0 0 0 0 0 0 0 0 0 0 0 0 0 0 0 0 0 0 0 0 0 0 0 0 0 0 0 0 0 0 0 0 0 0 0 0 0 0 0 0 0 0 0 0 0 0
0 0 0 0 0 0 0 0 0 0 0 0 0 0 0 0 0 0 0 0 0 0 0 0 0 0 0 0 0 0 0 0 0 0 0 0 0 0 0 0 0 0 0 0 0 0 0 0 0 0 0 0 0 0
0 0 0 0 0 0 0 -0 0 0 0 0 0 0 0 0 0 0 0 0 0 0 0 0 0 0 0 0 0 0 0 0 0 0 0 0 0 0 0 0 0 0 0 0 0 0 0 0 0 0 0 0 0 0
0 0 -0 0 0 0 0 0 0 0 0 0 0 0 0 0 0 0 0 0 0 0 0 0 0 0 0 0 0 0 0 0 0 0 0 0 0 0 0 0 0 0 0 0 0 0 0 0 0 0 0 0 0 0
-0 -0 -0 0 0 0 0 0 0 0 0 0 0 0 0 0 0 0 0 0 0 0 0 0 0 0 0 0 0 0 0 0 0 0 0 0 0 0 0 0 0 0 0 0 0 0 0 0 0 0 0 0 0 0
-0 -0 -0 0 0 0 0 0 0 -0 0 0 0 0 0 0 0 0 0 0 0 0 0 0 0 0 0 0 0 0 0 0 0 0 0 0 0 0 0 0 0 0 0 0 0 0 0 0 0 0 0 0 0 0
-0 -0 -0 0 0 0 0 0 0 -0 -0 -0 0 0 0 0 0 0 0 0 0 0 0 0 0 0 0 0 0 0 0 0 0 0 0 -0 0 0 0 0 0 0 0 0 0 0 0 0 0 0 0 0 0 0
0 0 0 0 0 0 0 0 0 0 -0 0 0 0 0 0 0 0 0 0 0 0 0 0 0 0 0 0 0 0 0 0 0 0 0 0 0 0 0 0 0 0 0 0 0 0 0 0 0 0 0 0 0 0
0 0 0 0 0 0 0 0 0 0 0 -0 0 0 0 0 0 0 0 0 0 0 0 0 0 0 0 0 0 0 0 0 0 0 0 0 0 0 0 0 0 0 0 0 0 0 0 0 0 0 0 0 0 0
0 0 0 0 0 0 0 0 0 0 0 0 0 0 0 0 0 0 0 0 0 0 0 0 0 0 0 0 0 0 0 0 0 0 0 0 0 0 0 0 0 0 0 0 0 0 0 0 0 0 0 0 0 0
0 0 0 0 0 0 0 0 0 0 0 0 0 0 0 0 0 0 0 0 0 0 0 0 0 0 0 0 0 0 0 0 0 0 0 0 0 0 0 0 0 0 0 0 0 0 0 0 0 0 0 0 0 0
0 0 0 0 0 0 0 0 0 0 0 0 0 0 0 0 0 0 0 0 0 0 0 0 0 0 0 0 0 0 0 0 0 0 0 0 0 0 0 0 0 0 0 0 0 0 0 0 0 0 0 0 0 0
0 0 0 0 0 0 0 0 0 0 0 0 0 0 0 0 0 0 0 0 0 0 0 0 0 0 0 0 0 0 0 0 0 0 0 0 0 0 0 0 0 0 0 0 0 0 0 0 0 0 0 0 0 0
0 0 0 0 0 0 0 0 0 0 0 0 0 0 0 0 0 0 0 0 0 0 0 0 0 0 0 0 0 0 0 0 0 0 0 0 0 0 0 0 0 0 0 0 0 0 0 0 0 0 0 0 0 0
0 0 0 0 0 0 0 0 0 0 0 0 0 0 0 0 0 0 0 0 0 0 0 0 0 0 0 0 0 0 0 -0 -0 0 0 0 0 0 0 0 0 0 0 0 0 0 0 0 0 0 0 0 0 0
0 0 0 0 0 0 0 0 0 0 0 0 0 0 0 0 0 0 0 0 0 0 0 0 0 0 0 0 0 0 0 -0 0 0 0 0 0 0 0 0 0 0 0 0 0 0 0 0 0 0 0 0 0 0
0 0 0 0 0 0 0 0 0 0 0 0 0 0 0 0 0 0 0 0 0 0 0 0 0 0 0 0 0 0 0 -0 0 0 0 0 0 0 0 0 0 0 0 0 0 0 0 0 0 0 0 0 0 0
0 0 0 0 0 0 0 0 0 0 0 0 0 0 0 0 0 0 0 0 0 0 0 0 0 0 0 0 0 0 0 0 0 0 0 0 0 0 0 0 0 0 0 0 0 0 0 0 0 0 0 0 0 0
0 -0 0 -0 0 0 0 0 0 0 0 0 0 0 -0 0 0 0 0 0 0 0 0 0 0 0 0 0 0 0 0 0 0 0 0 0 0 0 0 0 0 0 0 0 0 0 0 0 0 0 0 0 0 0
-0 -0 -0 -0 0 0 0 0 0 0 0 0 0 0 -0 0 0 0 0 0 0 0 0 0 0 0 0 0 0 0 0 0 0 0 0 0 0 0 0 0 0 0 0 0 0 0 0 0 0 0 0 0 0 0
-0 -0 0 0 0 0 0 0 0 0 0 0 0 0 0 0 0 0 0 0 0 0 0 0 0 0 0 0 0 0 0 0 0 0 0 0 0 0 0 0 0 0 0 0 0 0 0 0 0 0 0 0 0 0
0 -0 -0 -0 0 0 0 0 0 0 0 0 0 0 0 0 -0 0 0 0 0 0 0 0 0 0 0 0 0 0 0 0 0 0 0 0 0 0 0 0 0 0 0 0 0 0 0 0 0 0 0 0 0 0
-0 -0 -0 -0 0 0 0 0 0 0 0 0 0 0 0 0 0 0 0 0 0 0 0 0 0 0 0 0 0 0 0 0 0 0 0 0 0 0 0 0 0 0 0 0 -0 0 0 0 0 0 0 0 0 0
-0 0 0 -0 0 0 0 0 0 0 0 0 0 0 0 0 0 0 0 0 0 0 0 0 0 0 0 0 0 0 0 0 0 0 0 0 0 0 0 0 0 0 0 0 0 0 0 0 0 0 0 0 0 0
-0 -0 -0 -0 0 0 0 0 0 0 0 0 0 0 0 0 0 0 0 0 0 0 0 0 0 0 0 0 0 0 0 0 0 0 0 0 0 0 0 0 0 0 0 0 0 0 0 0 0 0 0 0 0 0
-0 -0 -0 -0 0 0 0 0 0 0 0 0 0 0 0 0 0 0 0 0 0 0 0 0 0 0 0 0 0 0 0 0 0 0 0 0 0 0 0 0 0 0 0 0 0 0 0 0 0 0 0 0 0 0
-0 -0 0 0 0 0 0 0 0 0 0 0 0 0 0 0 0 0 0 0 0 0 0 0 0 0 0 0 0 0 0 0 0 0 0 0 0 0 0 0 0 0 0 0 0 0 0 0 0 0 0 0 0 0
Wind_Speed_500mb
69 71 71 73 68 60 60 60 63 67 66 64 63 58 59 55 55 48 56 49 49 37 57 48 42 37 28 28 17 9 10 9 7 11 12 16 13 12 7 10 18 22 25 15 19 15 35 22 16 18 5 4 7 8
70 63 62 65 65 70 72 75 77 72 66 65 61 59 59 59 57 51 64 56 60 58 51 36 64 71 58 63 48 33 23 13 8 8 9 10 16 11 18 25 19 12 19 12 22 16 3 22 32 40 24 23 23 21
75 78 79 82 83 84 80 74 69 66 62 60 56 60 59 60 53 47 56 56 46 56 78 70 69 72 63 60 56 39 35 35 30 34 13 8 14 4 17 24 31 12 12 10 7 27 32 36 42 48 49 58 54 49
73 74 76 76 75 73 70 66 67 59 64 61 57 59 57 55 55 54 58 60 61 40 17 49 47 48 52 55 60 76 81 68 63 48 20 13 18 18 20 21 24 19 15 16 22 35 31 59 50 47 53 63 69 72
79 80 83 78 77 73 67 63 58 60 64 62 56 53 57 58 60 62 67 71 72 63 12 19 19 17 13 25 50 58 64 63 51 31 20 25 35 26 25 29 27 32 30 22 23 25 18 40 45 52 44 48 57 55
86 86 87 84 75 68 64 54 54 59 64 56 64 59 59 60 59 63 59 76 78 81 31 17 25 44 50 60 68 71 80 73 66 40 21 47 80 38 20 28 41 66 73 67 37 76 65 77 71 79 62 52 49 44
85 80 72 66 60 53 53 56 55 60 65 62 56 55 56 59 61 58 35 28 33 41 34 9 9 30 44 63 70 74 81 63 57 62 43 49 51 45 30 40 57 86 59 59 80 90 75 89 58 58 56 43 37 33
77 74 67 59 57 64 65 70 69 69 66 51 45 46 48 54 59 66 69 66 60 53 19 7 7 15 34 22 20 49 53 52 40 33 24 25 36 35 27 48 85 88 78 77 89 90 79 70 58 56 52 47 40 38
71 71 66 65 70 75 79 75 68 60 64 32 35 40 47 50 47 58 55 58 57 54 10 4 2 13 24 44 48 45 28 9 16 8 9 13 15 18 17 28 37 35 26 40 53 52 63 67 69 58 51 48 50 48
80 79 76 71 79 93 65 43 12 4 15 25 33 23 13 22 29 31 13 13 17 19 21 8 17 18 28 34 15 10 13 16 22 23 39 27 31 55 15 14 20 33 33 26 25 29 40 48 54 53 52 49 53 57
66 57 49 40 8 27 26 17 5 6 3 4 6 13 21 18 15 11 9 11 13 7 6 6 10 6 9 10 10 14 8 8 21 27 27 31 33 11 29 26 27 30 30 30 38 44 36 38 47 49 45 47 52 56
20 3 13 32 30 30 27 24 24 24 23 13 20 28 21 14 11 10 9 5 8 6 6 3 3 7 13 13 11 12 9 8 19 14 21 39 2 32 33 32 29 24 20 17 20 24 24 28 38 47 48 51 53 56
13 33 31 28 27 28 27 26 27 27 35 16 4 5 7 3 10 9 14 7 6 3 7 8 3 7 10 15 10 11 15 13 8 11 14 6 20 30 33 32 23 17 8 3 5 10 18 27 31 38 48 49 57 66
25 27 19 11 10 15 21 26 30 35 32 10 6 9 4 3 3 7 8 7 7 7 10 12 9 5 6 7 9 13 11 5 12 13 5 11 31 33 28 23 16 14 7 12 18 23 29 36 44 49 55 63 71 77
26 22 17 13 11 13 18 24 29 30 13 2 3 8 5 6 6 5 7 1 10 9 12 7 9 4 5 10 6 9 8 3 9 7 9 30 32 27 22 18 12 12 15 24 31 39 48 55 64 70 69 75 81 85
19 8 15 20 25 30 35 37 37 22 9 11 6 6 3 4 4 8 13 6 17 19 6 5 4 5 1 7 6 8 10 5 7 9 26 28 24 20 15 9 11 20 29 39 46 54 63 71 79 82 82 81 82 85
11 5 19 27 37 44 45 36 13 7 4 7 8 14 11 14 11 8 13 14 23 13 2 4 4 3 9 5 4 6 5 7 18 21 18 18 15 13 15 22 33 41 50 56 64 70 78 80 83 87 90 83 84 82
16 23 32 41 46 44 33 8 2 10 14 14 6 10 21 17 9 11 14 15 14 11 9 5 6 10 6 3 3 6 6 7 10 12 14 13 13 21 30 41 50 58 67 73 79 82 84 88 91 88 82 76 74 68
32 35 37 37 28 13 4 5 6 10 10 10 14 14 15 15 22 20 18 8 16 16 9 9 10 5 4 5 6 12 13 7 8 12 20 24 29 37 47 56 64 71 77 78 80 81 80 79 76 70 66 61 63 54
36 31 23 19 12 6 7 10 10 12 7 8 12 17 14 12 11 18 31 26 19 11 13 9 6 6 5 7 9 11 9 5 11 20 25 28 41 52 58 65 69 71 74 73 72 69 66 64 57 51 48 46 44 43
19 12 9 4 5 12 12 9 12 10 10 11 13 6 9 13 30 22 21 20 18 14 7 10 11 10 9 11 9 6 3 5 8 17 27 35 43 53 56 58 60 61 62 58 57 54 50 51 46 41 37 38 36 34
4 2 6 12 10 11 15 17 9 7 7 10 8 8 9 8 11 21 11 29 13 13 14 15 13 11 8 17 16 12 18 23 38 44 46 48 52 50 49 47 46 50 49 48 45 45 45 43 38 35 32 32 29 27
8 7 13 16 10 14 7 11 6 10 4 5 5 7 7 8 10 11 12 14 12 20 19 13 12 14 20 21 23 29 37 44 47 47 45 45 45 43 42 42 41 41 43 42 39 38 37 35 31 28 27 25 23 20
13 14 19 17 28 8 11 13 11 9 8 6 6 6 7 8 9 12 8 10 19 21 21 19 14 25 29 33 39 41 41 39 42 41 38 35 38 40 38 39 37 36 36 35 31 30 28 25 23 20 18 15 13 10
13 28 19 16 23 14 14 11 12 8 8 10 6 7 6 6 6 7 6 13 22 34 28 30 31 34 35 39 37 35 31 30 29 32 32 30 32 35 35 33 31 30 28 26 23 21 19 17 14 12 10 8 6 5
17 25 15 18 13 12 9 10 12 11 8 6 8 8 5 5 8 8 4 13 16 23 26 30 32 27 32 33 30 26 24 21 21 23 27 27 28 26 26 24 23 23 21 19 17 15 13 11 8 7 6 5 4 4
13 10 17 21 11 10 5 7 7 7 10 9 7 10 5 8 7 5 4 12 12 16 19 20 21 22 22 21 20 18 15 15 18 22 24 24 22 20 18 17 16 16 13 11 10 10 9 8 7 6 7 6 7 8
12 20 9 25 11 14 7 7 9 8 6 9 5 9 6 7 4 3 7 11 13 15 17 16 16 16 16 16 16 17 18 19 20 20 19 18 17 15 12 10 9 8 7 7 6 6 6 7 7 7 8 11 14 15
16 30 13 11 7 10 10 8 9 7 9 2 3 5 6 7 13 21 23 24 25 21 19 20 22 20 18 16 17 19 18 15 11 9 7 8 7 6 5 5 5 5 5 5 6 7 8 9 9 9 12 14 15 16
23 35 10 11 7 11 15 15 12 16 22 21 24 32 34 33 31 32 30 26 24 25 23 20 18 15 15 15 15 13 11 9 7 5 4 2 1 1 1 1 1 2 5 7 10 12 14 15 18 19 19 20 21 19
24 26 19 17 10 13 19 29 36 39 40 40 40 39 32 30 38 30 29 30 29 24 18 15 15 13 11 8 7 7 5 4 3 1 2 2 3 3 2 2 3 6 9 11 13 15 15 17 18 19 20 20 21 22
25 20 13 10 8 14 14 11 10 11 11 14 14 13 12 10 9 8 10 14 19 26 24 17 12 12 9 5 5 4 1 4 4 4 4 3 2 2 3 4 6 9 12 15 17 18 19 20 21 22 21 20 20 22
10 15 9 10 8 10 18 15 7 4 9 7 10 11 10 6 6 4 10 13 11 22 23 18 11 12 8 4 2 4 6 7 6 5 4 3 3 4 6 8 11 14 16 18 20 22 22 22 21 21 22 22 22 23
Wind_Direction_500mb
284 281 281 280 280 282 287 287 286 285 286 281 279 279 278 280 275 270 267 263 258 251 254 245 235 223 243 237 253 322 290 209 218 234 236 222 235 222 268 184 174 172 177 197 218 236 254 159 126 216 213 188 252 284
284 289 291 290 288 286 283 284 282 281 279 278 275 279 279 278 273 268 269 266 268 252 262 267 248 251 247 243 249 242 250 290 289 269 249 258 240 207 223 242 186 220 214 194 205 214 275 192 221 225 274 292 292 284
289 287 285 283 281 280 279 278 282 279 280 279 277 276 274 274 276 269 272 275 257 259 262 253 250 256 249 242 240 233 236 239 252 266 294 297 266 308 235 233 247 222 216 241 156 247 256 259 247 251 263 271 280 284
292 293 291 289 286 283 280 280 278 282 281 271 272 274 276 276 275 275 273 272 269 263 272 266 265 251 249 242 240 234 245 255 260 258 257 252 257 251 271 276 287 262 155 216 254 265 285 273 263 267 266 271 269 270
296 293 291 289 287 281 278 277 282 279 279 275 271 274 276 277 275 274 272 270 266 254 285 266 251 232 246 243 240 238 240 237 245 248 243 251 256 260 256 265 261 246 244 233 245 255 241 270 283 291 292 274 276 265
297 290 286 285 284 277 274 277 279 284 286 279 270 272 273 274 275 275 277 269 264 259 254 261 270 258 265 248 240 240 240 239 241 239 239 247 242 238 252 260 258 256 252 258 267 266 268 277 282 282 283 277 269 258
296 293 290 285 283 281 285 282 282 284 281 277 281 277 277 271 266 255 250 269 276 242 233 257 241 232 250 251 246 242 245 240 235 236 237 242 242 234 242 247 255 259 264 263 255 259 264 262 261 272 272 261 247 229
296 292 287 285 286 282 281 281 280 279 274 268 270 274 276 275 269 263 251 253 254 259 213 226 233 249 251 248 247 235 234 225 216 227 228 227 244 238 244 249 256 262 261 260 261 261 259 259 261 256 251 242 226 209
287 288 288 288 294 289 281 281 277 259 269 246 264 277 282 271 269 261 271 258 253 245 248 206 191 281 229 243 253 256 253 269 256 247 243 251 260 252 257 269 267 282 285 281 275 261 258 250 246 241 232 222 213 191
285 282 280 287 289 284 275 266 263 320 256 262 271 273 242 246 260 255 251 221 209 215 243 263 263 257 265 252 248 236 242 242 247 253 258 248 254 250 26 324 300 289 289 288 285 262 250 239 230 224 218 210 205 191
286 289 282 270 169 73 80 89 77 354 7 349 233 231 250 250 203 190 204 212 209 221 214 214 223 261 250 247 258 237 242 232 246 244 241 250 252 254 354 336 320 302 296 288 264 265 265 252 235 216 200 194 188 182
334 102 133 106 92 79 71 65 48 22 6 297 263 265 247 197 198 205 196 163 216 233 134 164 137 242 273 233 239 211 233 240 250 232 247 242 48 2 350 342 333 326 312 298 274 262 249 219 202 197 184 175 171 168
121 92 93 89 75 72 58 46 33 15 1 348 320 275 317 125 210 213 200 182 199 95 45 21 280 263 266 243 252 238 231 233 233 239 239 74 1 355 351 349 342 345 339 286 200 182 176 170 174 183 166 161 157 153
122 118 117 82 55 41 28 16 9 6 8 348 340 285 263 231 306 14 4 29 44 38 359 331 264 259 270 250 244 260 231 228 241 238 56 9 354 339 345 351 358 10 65 114 122 139 145 147 142 144 148 149 149 144
120 100 92 74 45 10 351 345 346 354 355 248 280 249 236 91 85 65 17 120 4 342 337 301 262 254 270 263 344 311 260 56 29 13 356 346 340 339 350 6 26 58 94 111 125 132 132 135 135 132 135 139 140 140
173 183 29 15 360 353 348 340 335 335 281 191 156 211 114 199 122 38 13 20 344 328 322 243 270 252 140 358 343 33 303 2 10 336 331 333 345 357 13 38 88 114 118 119 123 126 128 128 128 126 129 130 132 133
143 23 354 343 338 334 330 325 310 263 113 49 45 47 52 68 66 36 3 347 328 315 333 289 239 28 299 99 57 16 344 331 326 330 340 350 7 34 66 90 104 113 116 117 119 119 119 120 124 124 120 122 125 124
12 349 337 330 321 315 317 286 180 70 66 48 72 56 63 53 53 36 353 346 1 4 360 62 3 45 47 27 66 15 349 352 7 6 16 27 64 92 101 105 111 113 114 115 115 115 117 119 116 112 117 120 119 118
344 330 313 307 314 320 262 46 63 88 74 83 90 74 70 78 50 35 19 34 45 58 80 50 57 50 46 14 354 352 353 7 47 53 60 75 97 107 112 114 115 115 114 115 117 115 114 114 114 116 117 121 117 119
321 308 299 306 307 191 87 51 64 81 78 81 80 62 69 54 36 34 35 42 47 53 46 43 34 359 331 331 327 332 8 62 108 98 82 83 103 110 108 110 110 113 112 112 110 110 110 109 109 113 117 116 117 116
284 274 314 345 98 71 76 66 61 77 102 91 123 71 89 57 41 37 29 19 58 36 46 21 354 352 14 25 33 21 33 161 135 120 111 101 106 110 110 110 112 111 109 108 107 107 110 106 107 108 111 110 109 110
261 176 102 71 70 68 66 43 76 75 79 104 89 66 61 44 29 25 31 42 58 21 2 347 3 37 60 85 78 102 107 131 123 114 112 114 110 107 105 106 110 106 105 104 105 104 102 102 103 104 105 104 105 106
114 85 63 39 79 50 30 31 53 30 71 72 74 61 43 50 39 30 68 42 33 3 21 22 62 87 94 98 110 122 126 125 117 111 112 109 107 106 108 109 107 106 104 100 99 100 101 102 102 102 99 98 96 96
72 55 34 39 26 21 360 27 27 28 52 45 53 71 41 38 45 62 62 32 360 27 60 59 78 91 100 114 115 115 114 114 112 111 107 107 106 104 106 105 103 99 96 95 96 96 96 96 94 92 92 92 93 91
71 15 26 9 14 11 24 14 4 17 55 25 66 63 29 6 71 65 43 10 13 42 67 83 97 101 102 105 108 107 108 109 105 106 105 107 107 108 107 104 101 97 94 92 91 90 89 87 84 81 77 73 64 46
66 19 33 360 10 26 350 11 18 7 358 48 44 335 11 66 67 65 41 355 17 38 60 77 90 92 102 107 109 107 102 100 102 109 109 107 105 103 101 99 95 91 87 82 79 79 78 76 71 62 52 34 13 359
47 351 5 18 358 339 16 24 10 30 37 26 354 354 46 65 72 70 38 27 47 53 68 80 92 101 102 105 107 106 97 100 110 115 114 112 106 99 94 91 91 86 82 76 70 64 59 50 36 16 359 352 340 328
60 19 360 338 20 17 19 25 23 23 357 346 288 35 67 36 82 63 75 70 68 76 80 86 97 103 105 107 109 110 109 109 111 110 108 105 100 93 91 94 97 101 92 71 57 43 34 19 7 350 333 326 323 322
10 341 357 10 31 50 46 18 349 321 309 336 8 74 84 57 96 99 93 85 79 83 90 92 92 93 101 108 114 117 116 115 113 112 112 121 117 104 99 96 92 81 59 39 24 10 348 352 337 339 330 327 322 318
350 6 20 28 44 39 4 21 29 63 78 86 93 96 88 82 87 95 93 83 74 68 71 77 84 93 100 105 109 108 105 104 107 119 151 154 176 32 355 332 343 7 3 359 355 351 346 339 333 332 331 327 324 323
12 34 47 51 59 43 52 71 72 74 78 83 91 93 95 89 80 88 78 64 55 50 57 69 74 77 83 112 124 114 88 64 31 342 285 272 251 245 275 324 338 337 337 336 335 332 329 326 323 322 322 321 319 319
10 23 20 24 33 32 40 45 52 76 70 65 52 68 68 71 75 61 32 34 36 38 41 47 54 44 45 78 121 141 291 321 311 295 289 282 277 310 329 326 320 321 323 323 324 325 325 324 323 322 323 323 321 320
330 352 356 347 7 8 1 5 34 65 52 51 41 46 57 69 84 85 31 27 33 26 26 29 35 34 41 77 72 348 340 332 325 326 331 331 330 323 316 317 318 320 321 320 320 320 321 322 323 321 322 324 324 322
Wind_Speed_850mb
69 71 71 73 68 60 60 60 63 67 66 64 63 58 59 55 55 48 56 49 49 37 57 48 42 37 28 28 17 9 10 9 7 11 12 16 13 12 7 10 18 22 25 15 19 15 35 22 16 18 5 4 7 8
70 63 62 65 65 70 72 75 77 72 66 65 61 59 59 59 57 51 64 56 60 58 51 36 64 71 58 63 48 33 23 13 8 8 9 10 16 11 18 25 19 12 19 12 22 16 3 22 32 40 24 23 23 21
75 78 79 82 83 84 80 74 69 66 62 60 56 60 59 60 53 47 56 56 46 56 78 70 69 72 63 60 56 39 35 35 30 34 13 8 14 4 17 24 31 12 12 10 7 27 32 36 42 48 49 58 54 49
73 74 76 76 75 73 70 66 67 59 64 61 57 59 57 55 55 54 58 60 61 40 17 49 47 48 52 55 60 76 81 68 63 48 20 13 18 18 20 21 24 19 15 16 22 35 31 59 50 47 53 63 69 72
79 80 83 78 77 73 67 63 58 60 64 62 56 53 57 58 60 62 67 71 72 63 12 19 19 17 13 25 50 58 64 63 51 31 20 25 35 26 25 29 27 32 30 22 23 25 18 40 45 52 44 48 57 55
86 86 87 84 75 68 64 54 54 59 64 56 64 59 59 60 59 63 59 76 78 81 31 17 25 44 50 60 68 71 80 73 66 40 21 47 80 38 20 28 41 66 73 67 37 76 65 77 71 79 62 52 49 44
85 80 72 66 60 53 53 56 55 60 65 62 56 55 56 59 61 58 35 28 33 41 34 9 9 30 44 63 70 74 81 63 57 62 43 49 51 45 30 40 57 86 59 59 80 90 75 89 58 58 56 43 37 33
77 74 67 59 57 64 65 70 69 69 66 51 45 46 48 54 59 66 69 66 60 53 19 7 7 15 34 22 20 49 53 52 40 33 24 25 36 35 27 48 85 88 78 77 89 90 79 70 58 56 52 47 40 38
71 71 66 65 70 75 79 75 68 60 64 32 35 40 47 50 47 58 55 58 57 54 10 4 2 13 24 44 48 45 28 9 16 8 9 13 15 18 17 28 37 35 26 40 53 52 63 67 69 58 51 48 50 48
80 79 76 71 79 93 65 43 12 4 15 25 33 23 13 22 29 31 13 13 17 19 21 8 17 18 28 34 15 10 13 16 22 23 39 27 31 55 15 14 20 33 33 26 25 29 40 48 54 53 52 49 53 57
66 57 49 40 8 27 26 17 5 6 3 4 6 13 21 18 15 11 9 11 13 7 6 6 10 6 9 10 10 14 8 8 21 27 27 31 33 11 29 26 27 30 30 30 38 44 36 38 47 49 45 47 52 56
20 3 13 32 30 30 27 24 24 24 23 13 20 28 21 14 11 10 9 5 8 6 6 3 3 7 13 13 11 12 9 8 19 14 21 39 2 32 33 32 29 24 20 17 20 24 24 28 38 47 48 51 53 56
13 33 31 28 27 28 27 26 27 27 35 16 4 5 7 3 10 9 14 7 6 3 7 8 3 7 10 15 10 11 15 13 8 11 14 6 20 30 33 32 23 17 8 3 5 10 18 27 31 38 48 49 57 66
25 27 19 11 10 15 21 26 30 35 32 10 6 9 4 3 3 7 8 7 7 7 10 12 9 5 6 7 9 13 11 5 12 13 5 11 31 33 28 23 16 14 7 12 18 23 29 36 44 49 55 63 71 77
26 22 17 13 11 13 18 24 29 30 13 2 3 8 5 6 6 5 7 1 10 9 12 7 9 4 5 10 6 9 8 3 9 7 9 30 32 27 22 18 12 12 15 24 31 39 48 55 64 70 69 75 81 85
19 8 15 20 25 30 35 37 37 22 9 11 6 6 3 4 4 8 13 6 17 19 6 5 4 5 1 7 6 8 10 5 7 9 26 28 24 20 15 9 11 20 29 39 46 54 63 71 79 82 82 81 82 85
11 5 19 27 37 44 45 36 13 7 4 7 8 14 11 14 11 8 13 14 23 13 2 4 4 3 9 5 4 6 5 7 18 21 18 18 15 13 15 22 33 41 50 56 64 70 78 80 83 87 90 83 84 82
16 23 32 41 46 44 33 8 2 10 14 14 6 10 21 17 9 11 14 15 14 11 9 5 6 10 6 3 3 6 6 7 10 12 14 13 13 21 30 41 50 58 67 73 79 82 84 88 91 88 82 76 74 68
32 35 37 37 28 13 4 5 6 10 10 10 14 14 15 15 22 20 18 8 16 16 9 9 10 5 4 5 6 12 13 7 8 12 20 24 29 37 47 56 64 71 77 78 80 81 80 79 76 70 66 61 63 54
36 31 23 19 12 6 7 10 10 12 7 8 12 17 14 12 11 18 31 26 19 11 13 9 6 6 5 7 9 11 9 5 11 20 25 28 41 52 58 65 69 71 74 73 72 69 66 64 57 51 48 46 44 43
19 12 9 4 5 12 12 9 12 10 10 11 13 6 9 13 30 22 21 20 18 14 7 10 11 10 9 11 9 6 3 5 8 17 27 35 43 53 56 58 60 61 62 58 57 54 50 51 46 41 37 38 36 34
4 2 6 12 10 11 15 17 9 7 7 10 8 8 9 8 11 21 11 29 13 13 14 15 13 11 8 17 16 12 18 23 38 44 46 48 52 50 49 47 46 50 49 48 45 45 45 43 38 35 32 32 29 27
8 7 13 16 10 14 7 11 6 10 4 5 5 7 7 8 10 11 12 14 12 20 19 13 12 14 20 21 23 29 37 44 47 47 45 45 45 43 42 42 41 41 43 42 39 38 37 35 31 28 27 25 23 20
13 14 19 17 28 8 11 13 11 9 8 6 6 6 7 8 9 12 8 10 19 21 21 19 14 25 29 33 39 41 41 39 42 41 38 35 38 40 38 39 37 36 36 35 31 30 28 25 23 20 18 15 13 10
13 28 19 16 23 14 14 11 12 8 8 10 6 7 6 6 6 7 6 13 22 34 28 30 31 34 35 39 37 35 31 30 29 32 32 30 32 35 35 33 31 30 28 26 23 21 19 17 14 12 10 8 6 5
17 25 15 18 13 12 9 10 12 11 8 6 8 8 5 5 8 8 4 13 16 23 26 30 32 27 32 33 30 26 24 21 21 23 27 27 28 26 26 24 23 23 21 19 17 15 13 11 8 7 6 5 4 4
13 10 17 21 11 10 5 7 7 7 10 9 7 10 5 8 7 5 4 12 12 16 19 20 21 22 22 21 20 18 15 15 18 22 24 24 22 20 18 17 16 16 13 11 10 10 9 8 7 6 7 6 7 8
12 20 9 25 11 14 7 7 9 8 6 9 5 9 6 7 4 3 7 11 13 15 17 16 16 16 16 16 16 17 18 19 20 20 19 18 17 15 12 10 9 8 7 7 6 6 6 7 7 7 8 11 14 15
16 30 13 11 7 10 10 8 9 7 9 2 3 5 6 7 13 21 23 24 25 21 19 20 22 20 18 16 17 19 18 15 11 9 7 8 7 6 5 5 5 5 5 5 6 7 8 9 9 9 12 14 15 16
23 35 10 11 7 11 15 15 12 16 22 21 24 32 34 33 31 32 30 26 24 25 23 20 18 15 15 15 15 13 11 9 7 5 4 2 1 1 1 1 1 2 5 7 10 12 14 15 18 19 19 20 21 19
24 26 19 17 10 13 19 29 36 39 40 40 40 39 32 30 38 30 29 30 29 24 18 15 15 13 11 8 7 7 5 4 3 1 2 2 3 3 2 2 3 6 9 11 13 15 15 17 18 19 20 20 21 22
25 20 13 10 8 14 14 11 10 11 11 14 14 13 12 10 9 8 10 14 19 26 24 17 12 12 9 5 5 4 1 4 4 4 4 3 2 2 3 4 6 9 12 15 17 18 19 20 21 22 21 20 20 22
10 15 9 10 8 10 18 15 7 4 9 7 10 11 10 6 6 4 10 13 11 22 23 18 11 12 8 4 2 4 6 7 6 5 4 3 3 4 6 8 11 14 16 18 20 22 22 22 21 21 22 22 22 23
Wind_Direction_850mb
284 281 281 280 280 282 287 287 286 285 286 281 279 279 278 280 275 270 267 263 258 251 254 245 235 223 243 237 253 322 290 209 218 234 236 222 235 222 268 184 174 172 177 197 218 236 254 159 126 216 213 188 252 284
284 289 291 290 288 286 283 284 282 281 279 278 275 279 279 278 273 268 269 266 268 252 262 267 248 251 247 243 249 242 250 290 289 269 249 258 240 207 223 242 186 220 214 194 205 214 275 192 221 225 274 292 292 284
289 287 285 283 281 280 279 278 282 279 280 279 277 276 274 274 276 269 272 275 257 259 262 253 250 256 249 242 240 233 236 239 252 266 294 297 266 308 235 233 247 222 216 241 156 247 256 259 247 251 263 271 280 284
292 293 291 289 286 283 280 280 278 282 281 271 272 274 276 276 275 275 273 272 269 263 272 266 265 251 249 242 240 234 245 255 260 258 257 252 257 251 271 276 287 262 155 216 254 265 285 273 263 267 266 271 269 270
296 293 291 289 287 281 278 277 282 279 279 275 271 274 276 277 275 274 272 270 266 254 285 266 251 232 246 243 240 238 240 237 245 248 243 251 256 260 256 265 261 246 244 233 245 255 241 270 283 291 292 274 276 265
297 290 286 285 284 277 274 277 279 284 286 279 270 272 273 274 275 275 277 269 264 259 254 261 270 258 265 248 240 240 240 239 241 239 239 247 242 238 252 260 258 256 252 258 267 266 268 277 282 282 283 277 269 258
296 293 290 285 283 281 285 282 282 284 281 277 281 277 277 271 266 255 250 269 276 242 233 257 241 232 250 251 246 242 245 240 235 236 237 242 242 234 242 247 255 259 264 263 255 259 264 262 261 272 272 261 247 229
296 292 287 285 286 282 281 281 280 279 274 268 270 274 276 275 269 263 251 253 254 259 213 226 233 249 251 248 247 235 234 225 216 227 228 227 244 238 244 249 256 262 261 260 261 261 259 259 261 256 251 242 226 209
287 288 288 288 294 289 281 281 277 259 269 246 264 277 282 271 269 261 271 258 253 245 248 206 191 281 229 243 253 256 253 269 256 247 243 251 260 252 257 269 267 282 285 281 275 261 258 250 246 241 232 222 213 191
285 282 280 287 289 284 275 266 263 320 256 262 271 273 242 246 260 255 251 221 209 215 243 263 263 257 265 252 248 236 242 242 247 253 258 248 254 250 26 324 300 289 289 288 285 262 250 239 230 224 218 210 205 191
286 289 282 270 169 73 80 89 77 354 7 349 233 231 250 250 203 190 204 212 209 221 214 214 223 261 250 247 258 237 242 232 246 244 241 250 252 254 354 336 320 302 296 288 264 265 265 252 235 216 200 194 188 182
334 102 133 106 92 79 71 65 48 22 6 297 263 265 247 197 198 205 196 163 216 233 134 164 137 242 273 233 239 211 233 240 250 232 247 242 48 2 350 342 333 326 312 298 274 262 249 219 202 197 184 175 171 168
121 92 93 89 75 72 58 46 33 15 1 348 320 275 317 125 210 213 200 182 199 95 45 21 280 263 266 243 252 238 231 233 233 239 239 74 1 355 351 349 342 345 339 286 200 182 176 170 174 183 166 161 157 153
122 118 117 82 55 41 28 16 9 6 8 348 340 285 263 231 306 14 4 29 44 38 359 331 264 259 270 250 244 260 231 228 241 238 56 9 354 339 345 351 358 10 65 114 122 139 145 147 142 144 148 149 149 144
120 100 92 74 45 10 351 345 346 354 355 248 280 249 236 91 85 65 17 120 4 342 337 301 262 254 270 263 344 311 260 56 29 13 356 346 340 339 350 6 26 58 94 111 125 132 132 135 135 132 135 139 140 140
173 183 29 15 360 353 348 340 335 335 281 191 156 211 114 199 122 38 13 20 344 328 322 243 270 252 140 358 343 33 303 2 10 336 331 333 345 357 13 38 88 114 118 119 123 126 128 128 128 126 129 130 132 133
143 23 354 343 338 334 330 325 310 263 113 49 45 47 52 68 66 36 3 347 328 315 333 289 239 28 299 99 57 16 344 331 326 330 340 350 7 34 66 90 104 113 116 117 119 119 119 120 124 124 120 122 125 124
12 349 337 330 321 315 317 286 180 70 66 48 72 56 63 53 53 36 353 346 1 4 360 62 3 45 47 27 66 15 349 352 7 6 16 27 64 92 101 105 111 113 114 115 115 115 117 119 116 112 117 120 119 118
344 330 313 307 314 320 262 46 63 88 74 83 90 74 70 78 50 35 19 34 45 58 80 50 57 50 46 14 354 352 353 7 47 53 60 75 97 107 112 114 115 115 114 115 117 115 114 114 114 116 117 121 117 119
321 308 299 306 307 191 87 51 64 81 78 81 80 62 69 54 36 34 35 42 47 53 46 43 34 359 331 331 327 332 8 62 108 98 82 83 103 110 108 110 110 113 112 112 110 110 110 109 109 113 117 116 117 116
284 274 314 345 98 71 76 66 61 77 102 91 123 71 89 57 41 37 29 19 58 36 46 21 354 352 14 25 33 21 33 161 135 120 111 101 106 110 110 110 112 111 109 108 107 107 110 106 107 108 111 110 109 110
261 176 102 71 70 68 66 43 76 75 79 104 89 66 61 44 29 25 31 42 58 21 2 347 3 37 60 85 78 102 107 131 123 114 112 114 110 107 105 106 110 106 105 104 105 104 102 102 103 104 105 104 105 106
114 85 63 39 79 50 30 31 53 30 71 72 74 61 43 50 39 30 68 42 33 3 21 22 62 87 94 98 110 122 126 125 117 111 112 109 107 106 108 109 107 106 104 100 99 100 101 102 102 102 99 98 96 96
72 55 34 39 26 21 360 27 27 28 52 45 53 71 41 38 45 62 62 32 360 27 60 59 78 91 100 114 115 115 114 114 112 111 107 107 106 104 106 105 103 99 96 95 96 96 96 96 94 92 92 92 93 91
71 15 26 9 14 11 24 14 4 17 55 25 66 63 29 6 71 65 43 10 13 42 67 83 97 101 102 105 108 107 108 109 105 106 105 107 107 108 107 104 101 97 94 92 91 90 89 87 84 81 77 73 64 46
66 19 33 360 10 26 350 11 18 7 358 48 44 335 11 66 67 65 41 355 17 38 60 77 90 92 102 107 109 107 102 100 102 109 109 107 105 103 101 99 95 91 87 82 79 79 78 76 71 62 52 34 13 359
47 351 5 18 358 339 16 24 10 30 37 26 354 354 46 65 72 70 38 27 47 53 68 80 92 101 102 105 107 106 97 100 110 115 114 112 106 99 94 91 91 86 82 76 70 64 59 50 36 16 359 352 340 328
60 19 360 338 20 17 19 25 23 23 357 346 288 35 67 36 82 63 75 70 68 76 80 86 97 103 105 107 109 110 109 109 111 110 108 105 100 93 91 94 97 101 92 71 57 43 34 19 7 350 333 326 323 322
10 341 357 10 31 50 46 18 349 321 309 336 8 74 84 57 96 99 93 85 79 83 90 92 92 93 101 108 114 117 116 115 113 112 112 121 117 104 99 96 92 81 59 39 24 10 348 352 337 339 330 327 322 318
350 6 20 28 44 39 4 21 29 63 78 86 93 96 88 82 87 95 93 83 74 68 71 77 84 93 100 105 109 108 105 104 107 119 151 154 176 32 355 332 343 7 3 359 355 351 346 339 333 332 331 327 324 323
12 34 47 51 59 43 52 71 72 74 78 83 91 93 95 89 80 88 78 64 55 50 57 69 74 77 83 112 124 114 88 64 31 342 285 272 251 245 275 324 338 337 337 336 335 332 329 326 323 322 322 321 319 319
10 23 20 24 33 32 40 45 52 76 70 65 52 68 68 71 75 61 32 34 36 38 41 47 54 44 45 78 121 141 291 321 311 295 289 282 277 310 329 326 320 321 323 323 324 325 325 324 323 322 323 323 321 320
330 352 356 347 7 8 1 5 34 65 52 51 41 46 57 69 84 85 31 27 33 26 26 29 35 34 41 77 72 348 340 332 325 326 331 331 330 323 316 317 318 320 321 320 320 320 321 322 323 321 322 324 324 322